Andrews AFB, MD

8:24 AM EDT on April 19, 2018 (GMT -0400)
Andrews Air Force Base-Naf

Weather History for KADW - October, 2013

Change the Weather History Date:

Sunday, October 20, 2013

  Actual Average Record
Temperature  
Mean Temperature 52 °F -  
Max Temperature 62 °F 62 °F 81 °F (2016)
Min Temperature 43 °F 43 °F 33 °F (2008)
Degree Days  
Heating Degree Days 13    
Growing Degree Days 2 (Base 50)    
Moisture  
Dew Point 36 °F    
Average Humidity 55    
Maximum Humidity 86    
Minimum Humidity 34    
Precipitation  
Precipitation 0.00 in - - ()
Sea Level Pressure  
Sea Level Pressure 30.05 in    
Wind  
Wind Speed 10 mph (West)    
Max Wind Speed 20 mph    
Max Gust Speed 29 mph    
Visibility 10 miles    
Events      
Averages and records for this station are not official NWS values.
T = Trace of Precipitation, MM = Missing Value Source: NWS Daily Summary

Daily Weather History Graph

Daily Weather History Graph

Search for Another Location

Airport or City:

Astronomy

Oct. 20, 2013 Rise Set
Actual Time 7:22 AM EDT 6:21 PM EDT
Civil Twilight 6:55 AM EDT 6:48 PM EDT
Nautical Twilight 6:24 AM EDT 7:19 PM EDT
Astronomical Twilight 5:53 AM EDT 7:50 PM EDT
Moon 7:30 PM EDT (10/20) 8:56 AM EDT (10/20)
Length of Visible Light 11h 53m
Length of Day
10h 59m
Full, 97% of the Moon is Illuminated
Oct 20
Full
Oct 26
Last Quarter
Nov 3
New
Nov 10
First Quarter
Nov 17
Full

Hourly Weather History & Observations

Time (EDT) Temp. Windchill Dew Point Humidity Pressure Visibility Wind Dir Wind Speed Gust Speed Precip Events Conditions
12:58 AM 57.4 °F - 45.9 °F 65% 29.89 in 10.0 mi WNW 10.4 mph 19.6 mph N/A   Clear
1:58 AM 55.6 °F - 40.8 °F 58% 29.92 in 10.0 mi WNW 9.2 mph - N/A   Clear
2:58 AM 52.9 °F - 34.0 °F 49% 29.94 in 10.0 mi WNW 11.5 mph - N/A   Clear
3:58 AM 51.6 °F - 31.6 °F 46% 29.95 in 10.0 mi NW 19.6 mph 28.8 mph N/A   Clear
4:58 AM 50.2 °F - 33.4 °F 53% 29.99 in 10.0 mi WNW 11.5 mph - N/A   Clear
5:58 AM 48.4 °F - 34.5 °F 59% 30.00 in 10.0 mi WNW 8.1 mph - N/A   Clear
6:58 AM 48.2 °F - 34.3 °F 59% 30.02 in 10.0 mi WNW 6.9 mph - N/A   Clear
7:58 AM 47.8 °F - 34.9 °F 61% 30.04 in 10.0 mi WNW 9.2 mph - N/A   Clear
8:58 AM 50.7 °F - 35.4 °F 56% 30.07 in 10.0 mi WNW 12.7 mph - N/A   Clear
9:58 AM 53.1 °F - 35.8 °F 52% 30.07 in 10.0 mi WNW 13.8 mph - N/A   Clear
10:58 AM 55.6 °F - 35.8 °F 47% 30.08 in 10.0 mi NW 16.1 mph - N/A   Clear
11:58 AM 58.3 °F - 34.5 °F 41% 30.09 in 10.0 mi WNW 9.2 mph 20.7 mph N/A   Clear
12:58 PM 59.9 °F - 35.6 °F 40% 30.08 in 10.0 mi WNW 10.4 mph - N/A   Clear
1:58 PM 60.8 °F - 33.3 °F 36% 30.07 in 10.0 mi WSW 6.9 mph - N/A   Clear
2:58 PM 61.7 °F - 34.2 °F 36% 30.05 in 10.0 mi WNW 9.2 mph 16.1 mph N/A   Clear
3:58 PM 61.9 °F - 33.1 °F 34% 30.05 in 10.0 mi WNW 10.4 mph - N/A   Clear
4:58 PM 61.5 °F - 33.4 °F 35% 30.06 in 10.0 mi West 8.1 mph - N/A   Clear
5:58 PM 59.9 °F - 33.6 °F 37% 30.06 in 10.0 mi WNW 5.8 mph - N/A   Clear
6:58 PM 51.3 °F - 39.4 °F 64% 30.09 in 10.0 mi Calm Calm - N/A   Clear
7:58 PM 47.1 °F - 41.0 °F 79% 30.11 in 10.0 mi SE 2.3 mph - N/A   Clear
8:58 PM 46.2 °F - 40.1 °F 79% 30.12 in 10.0 mi SSE 2.3 mph - N/A   Clear
9:58 PM 43.5 °F 40.9 °F 39.6 °F 86% 30.13 in 10.0 mi South 4.6 mph - N/A   Clear
10:58 PM 45.9 °F 42.9 °F 39.2 °F 78% 30.12 in 10.0 mi South 5.8 mph - N/A   Clear
11:58 PM 45.5 °F 42.5 °F 39.4 °F 79% 30.14 in 10.0 mi South 5.8 mph - N/A   Clear